Location: Moscow Pond
(43.6842°N, 73.2366°W)
Time: 07:01:10
(UTC+00:00)

Cosmos 1328 - Pass Details

Date: 08 November 2025
Orbit: 463 x 480 km, 82.5° (Epoch: 06 December)

Event Time Altitude Azimuth Distance (km) Brightness Sun altitude
Exits shadow 09:52:31 20° 201° (SSW) 1,169 5.3 -19.3°
Maximum altitude 09:54:54 65° 279° (W) 538 3.4 -18.9°
Drops below altitude 10° 09:58:33 10° 3° (N) 1,681 6.3 -18.3°
Sets 10:00:41 0° 6° (N) 2,567 7.2 -17.9°
